weather.gov     
National Weather Service

Regional Weather Roundup
NWS Homepage
This page is being discontinued on March 12, 2014.
The same data is available at this site. Please update your bookmarks.
Thank you, and we apologize for the inconvenience.
Please send an email to SR-SRH.Webmaster@noaa.gov with any concerns.


Current Version
Previous Version:    01  02  03  04  05  06  07  08  09  10  11  12  13  14  15  16  17  18  19  20  21  22  23  24  25  26  27  28  29  30  
   31  32  33  34  35  36  37  38  39  40  41  42  43  44  45  46  47  48  49  50  51  52  53  
[Printable]
038
ASUS45 KABQ 251710
RWRNM
WEATHER ROUNDUP FOR NEW MEXICO
NATIONAL WEATHER SERVICE ALBUQUERQUE NM
1100 AM MDT SAT OCT 25 2014

NOTE: "FAIR" MEANS FEW OR NO CLOUDS BELOW 12,000 FEET AGL WITH NO
       SIGNIFICANT WEATHER OR OBSTRUCTIONS TO VISION.

      THIS PRODUCT IS RELEASED AS TWO VERSIONS.  ONE VERSION NEAR
      THE TOP OF THE HOUR CONTAINING PRELIMINARY DATA FROM ALBUQUERQUE
      AND OTHER STATIONS.  A FINAL VERSION WITH ADDITIONAL DATA IS
      ISSUED ABOUT 10 MINUTES AFTER THE HOUR.

NMZ501-503-504-510>518-251800-
NORTHWEST PLATEAU/NORTHCENTRAL MOUNTAINS

CITY           SKY/WX    TMP DP  RH WIND       PRES   REMARKS
FARMINGTON     SUNNY     59  35  40 E10       30.31F
LOS ALAMOS     SUNNY     59  26  28 CALM      30.41S
SANTA FE       SUNNY     66  22  18 N13       30.35F
TAOS           SUNNY     59  25  27 W3        30.40F
ANGEL FIRE     FAIR      56  21  25 CALM      30.46F

$$
NMZ402-403-502-505>509-251800-
WESTCENTRAL MOUNTAINS/SOUTHWEST MOUNTAINS

CITY           SKY/WX    TMP DP  RH WIND       PRES   REMARKS
GALLUP         SUNNY     61  36  39 CALM      30.38F
GRANTS         SUNNY     59  27  29 N3        30.40F
SILVER CITY    SUNNY     73  39  29 S3        30.35S

$$
NMZ407-409-411-412-251800-
SOUTHERN DESERTS

CITY           SKY/WX    TMP DP  RH WIND       PRES   REMARKS
LORDSBURG      FAIR      72  45  37 SE3       30.27F
DEMING         SUNNY     71  46  40 CALM      30.27F
LAS CRUCES     SUNNY     72  44  36 SE3       30.29S
HOLLOMAN AFB   SUNNY     70  46  42 S6        30.26S
T OR C         SUNNY     69  46  43 E3        30.29F

$$
NMZ519>523-251800-
CENTRAL VALLEYS/CENTRAL HIGHLANDS

CITY           SKY/WX    TMP DP  RH WIND       PRES   REMARKS
ALBUQUERQUE    SUNNY     62  34  35 CALM      30.34S
DOUBLE EAGLE   SUNNY     64  27  24 CALM      30.36S
MORIARTY ARPT  FAIR      66  33  29 W3        30.36F
CLINES CORNERS SUNNY     68  28  22 W17       30.36S
BELEN          FAIR      64  32  30 NE3       30.33S
SOCORRO        FAIR      65  39  38 N6        30.32S

$$
NMZ524>526-539-540-251800-
SOUTHCENTRAL MOUNTAINS

CITY           SKY/WX    TMP DP  RH WIND       PRES   REMARKS
RUIDOSO        SUNNY     68  36  30 W3        30.40F

$$
NMZ527>531-251800-
NORTHEAST HIGHLANDS/NORTHEAST PLAINS

CITY           SKY/WX    TMP DP  RH WIND       PRES   REMARKS
LAS VEGAS      SUNNY     72  18  13 CALM      30.33F
RATON          SUNNY     73  29  19 NE7       30.28F
CLAYTON        SUNNY     79  29  16 S8        30.21F

$$
NMZ532>537-251800-
EASTCENTRAL PLAINS

CITY           SKY/WX    TMP DP  RH WIND       PRES   REMARKS
TUCUMCARI      SUNNY     74  34  23 SW7       30.18F
CANNON AFB     SUNNY     75  47  36 SW7       30.23F
CLOVIS AIRPORT SUNNY     73  48  40 S8        30.25F

$$
NMZ028-029-538-251800-
SOUTHEAST PLAINS

CITY           SKY/WX    TMP DP  RH WIND       PRES   REMARKS
ROSWELL        SUNNY     68  53  58 S6        30.22S
CARLSBAD       SUNNY     70  56  61 SE5       30.21S
HOBBS          SUNNY     73  57  56 S7        30.24S


$$




U.S. Dept. of Commerce
NOAA National Weather Service
1325 East West Highway
Silver Spring, MD 20910
E-mail: w-nws.webmaster@noaa.gov
Page last modified: May 16, 2007
NATIONAL WEATHER SERVICE: for Safety, for Work, for Fun - FOR LIFE